Weather History for Fort Leonard Wood, MO

Change the Weather History Date:

Tuesday, July 2, 2013

  Actual Average Record
Temperature  
Mean Temperature 66 °F -  
Max Temperature 77 °F 84 °F 97 °F (2012)
Min Temperature 56 °F 68 °F 56 °F (2013)
Cooling Degree Days 1    
Growing Degree Days 16 (Base 50)    
Moisture  
Dew Point 57 °F    
Average Humidity 74    
Maximum Humidity 95    
Minimum Humidity 48    
Precipitation  
Precipitation 0.00 in - - ()
Sea Level Pressure  
Sea Level Pressure 30.04 in    
Wind  
Wind Speed 6 mph (NNW)    
Max Wind Speed 12 mph    
Max Gust Speed 17 mph    
Visibility 10 miles    
Events      
Averages and records for this station are not official NWS values.
T = Trace of Precipitation, MM = Missing Value Source: NWS Daily Summary

Daily Weather History Graph

Daily Weather History Graph

Search for Another Location

Airport:

Trip Planner

Search our weather history database for the weather conditions in past years. The results will help you decide how hot, cold, wet, or windy it might be!

Date:

Astronomy

Jul. 02, 2013 Rise Set
Actual Time 5:51 AM CDT 8:34 PM CDT
Civil Twilight 5:19 AM CDT 9:05 PM CDT
Nautical Twilight 4:41 AM CDT 9:44 PM CDT
Astronomical Twilight 3:57 AM CDT 10:27 PM CDT
Moon 1:50 AM CDT (7/2) 3:51 PM CDT (7/2)
Length of Visible Light 15h 45m
Length of Day
14h 43m
Waning Crescent, 26% of the Moon is Illuminated
Jul 2
Waning Crescent
Jul 8
New
Jul 15
First Quarter
Jul 22
Full
Jul 29
Last Quarter

Hourly Weather History & Observations

Time (CDT) Temp. Dew Point Humidity Pressure Visibility Wind Dir Wind Speed Gust Speed Precip Events Conditions
12:58 AM 60.8 °F 57.4 °F 88% 30.00 in 10.0 mi NW 4.6 mph - N/A   Clear
1:58 AM 59.2 °F 56.1 °F 90% 30.00 in 10.0 mi NW 3.5 mph - N/A   Clear
2:58 AM 58.3 °F 55.6 °F 91% 29.99 in 10.0 mi NW 4.6 mph - N/A   Clear
3:58 AM 57.6 °F 55.2 °F 92% 29.99 in 10.0 mi NW 3.5 mph - N/A   Clear
4:58 AM 56.8 °F 55.4 °F 95% 30.00 in 10.0 mi NW 2.3 mph - N/A   Partly Cloudy
5:58 AM 57.0 °F 55.4 °F 94% 30.02 in 10.0 mi WNW 4.6 mph - N/A   Overcast
6:58 AM 57.2 °F 55.0 °F 92% 30.03 in 10.0 mi NW 5.8 mph - N/A   Clear
7:55 AM 59.0 °F 55.4 °F 88% 30.06 in 10.0 mi NW 5.8 mph - N/A   Clear
8:55 AM 62.6 °F 57.2 °F 82% 30.07 in 10.0 mi NW 5.8 mph - N/A   Clear
9:55 AM 66.2 °F 57.2 °F 73% 30.07 in 10.0 mi Variable 6.9 mph - N/A   Clear
10:55 AM 68.0 °F 59.0 °F 73% 30.07 in 10.0 mi NW 9.2 mph - N/A   Partly Cloudy
11:58 AM 72.1 °F 59.4 °F 64% 30.06 in 10.0 mi NNW 9.2 mph - N/A   Partly Cloudy
12:58 PM 75.0 °F 56.1 °F 52% 30.06 in 10.0 mi North 11.5 mph - N/A   Mostly Cloudy
1:58 PM 75.4 °F 54.5 °F 48% 30.05 in 10.0 mi North 11.5 mph 17.3 mph N/A   Mostly Cloudy
2:58 PM 76.5 °F 56.3 °F 50% 30.05 in 10.0 mi Variable 6.9 mph - N/A   Mostly Cloudy
3:58 PM 75.2 °F 56.7 °F 52% 30.05 in 10.0 mi NNE 10.4 mph 17.3 mph N/A   Partly Cloudy
4:58 PM 76.1 °F 56.5 °F 50% 30.05 in 10.0 mi NNE 11.5 mph - N/A   Clear
5:58 PM 74.5 °F 55.9 °F 52% 30.04 in 10.0 mi North 9.2 mph - N/A   Partly Cloudy
6:58 PM 73.9 °F 55.0 °F 52% 30.05 in 10.0 mi ENE 5.8 mph - N/A   Clear
7:58 PM 71.4 °F 55.2 °F 57% 30.06 in 10.0 mi East 5.8 mph - N/A   Clear
8:58 PM 66.2 °F 57.2 °F 73% 30.06 in 10.0 mi East 3.5 mph - N/A   Clear
9:58 PM 63.3 °F 58.6 °F 85% 30.08 in 10.0 mi SE 4.6 mph - N/A   Clear
10:58 PM 61.0 °F 58.1 °F 90% 30.09 in 10.0 mi SSE 4.6 mph - N/A   Clear
11:58 PM 60.4 °F 57.6 °F 90% 30.07 in 10.0 mi South 4.6 mph - N/A   Clear